[[{"header":{"parameterUnit":"m.s-1","parameterCategory":1,"la1":30.2991,"la2":30.254,"lo1":-89.0895,"lo2":-89.0444,"dy":0.0017,"dx":0.0017,"nx":28,"ny":28,"refTime":"2023-09-09T03:00:00:Z","depth":0,"parameterNumber":2,"parameterNumberName":"U-component_of_WINDS"},"data":[0,0,0,0,0,0,0,0,0,0,0,0,0,0,0,0,0,0,0,0,0,0,0,0,0,0,0,0,0,0,0,0,0,0,0,0,0,0,0,0,0,0,0,0,0,0,0,0,0,0,0,0,0,0,0,0,0,0,-0.468,-0.4679,0,-0.4636,-0.4636,-0.4635,-0.4542,-0.4541,-0.4539,-0.4537,-0.4496,-0.4497,-0.4498,0,0,0,0,0,0,0,0,0,0,0,0,0,-0.4685,-0.4685,-0.468,-0.4679,-0.4679,-0.4636,-0.4636,-0.4635,-0.4543,-0.4541,-0.4538,-0.4536,-0.4496,-0.4497,-0.4498,0,0,0,0,0,0,0,0,0,0,0,0,0,-0.4666,-0.4685,-0.468,-0.4627,-0.4622,-0.4636,-0.4636,-0.4635,-0.4543,-0.454,-0.4538,-0.4535,-0.4496,-0.4497,-0.4498,-0.456,0,0,-0.4501,-0.4501,0,0,0,0,0,0,0,0,-0.4667,-0.4666,-0.4636,-0.4631,-0.4625,-0.4592,-0.4622,-0.461,-0.4544,-0.4573,-0.4537,-0.4534,-0.4531,-0.4528,-0.4527,-0.4559,-0.4557,-0.4501,-0.4501,-0.4502,-0.4502,0,0,0,0,0,0,0,-0.4669,-0.4668,-0.4663,-0.4635,-0.4629,-0.4607,-0.4601,-0.462,-0.4569,-0.4571,-0.4564,-0.456,-0.4527,-0.4526,-0.4525,-0.4556,-0.4501,-0.4502,-0.4502,-0.4503,-0.4635,-0.4638,0,0,0,0,0,0,-0.4677,-0.4669,-0.4664,-0.4661,-0.464,-0.4609,-0.4602,-0.4605,-0.4568,-0.4559,-0.4562,-0.4556,-0.4526,-0.4524,-0.4523,-0.4593,-0.4502,-0.4503,-0.4503,-0.4632,-0.4636,-0.4639,0,0,0,0,0,0,-0.4678,-0.4678,-0.4666,-0.4663,-0.466,-0.4612,-0.4616,-0.4606,-0.4605,-0.4561,-0.4552,-0.457,-0.4523,-0.4522,-0.4551,-0.4591,-0.4503,-0.4504,-0.4629,-0.4633,-0.4638,-0.4735,0,0,0,0,0,0,-0.4678,-0.4678,-0.4702,-0.4664,-0.466,-0.4694,-0.4618,-0.4607,-0.4606,-0.4597,-0.4567,-0.4559,-0.4521,-0.455,-0.4552,-0.4591,-0.4505,-0.4625,-0.4631,-0.4636,-0.4728,-0.4742,-0.4754,0,0,0,0,0,-0.4679,-0.4732,-0.4703,-0.4703,-0.4688,-0.4697,-0.4695,-0.4649,-0.461,-0.4633,-0.4605,-0.456,-0.4586,-0.4554,-0.4555,-0.4595,-0.4623,-0.4629,-0.4636,-0.4722,-0.474,-0.4754,0,0,0,0,0,0,-0.4778,-0.4726,-0.4694,-0.4737,-0.4722,-0.4681,-0.4709,-0.4669,-0.4666,-0.4658,-0.4602,-0.4596,-0.4632,-0.4616,-0.4582,-0.4652,-0.4597,-0.4604,-0.4662,-0.4678,-0.4691,-0.4695,-0.4506,0,0,0,0,0,-0.4804,-0.4814,-0.4769,-0.4811,-0.4805,-0.4759,-0.4761,-0.4726,-0.4709,-0.4702,-0.4676,-0.4662,-0.4666,-0.4671,-0.4673,-0.4724,-0.4716,-0.4752,-0.4765,-0.4776,-0.4784,-0.4808,-0.4823,-0.4661,-0.4661,-0.466,0,0,-0.4859,-0.4833,-0.4843,-0.483,-0.4815,-0.4827,-0.4754,-0.4771,-0.4779,-0.4705,-0.4731,-0.4711,-0.4691,-0.4732,-0.4748,-0.4719,-0.4826,-0.4784,-0.4793,-0.4795,-0.4816,-0.4832,-0.4846,-0.4665,-0.4664,-0.4664,0,0,-0.4967,-0.4947,-0.498,-0.4964,-0.4941,-0.4909,-0.4916,-0.4881,-0.4865,-0.4889,-0.4833,-0.4843,-0.4852,-0.484,-0.4835,-0.4934,-0.4893,-0.4937,-0.5006,-0.503,-0.5043,-0.5054,-0.509,-0.5103,-0.4944,-0.4944,-0.4944,0,-0.5039,-0.5055,-0.5002,-0.5021,-0.5017,-0.4948,-0.498,-0.4968,-0.4948,-0.4946,-0.4914,-0.4922,-0.4904,-0.494,-0.4964,-0.4962,-0.4969,-0.4941,-0.5045,-0.5056,-0.5066,-0.5099,-0.5112,-0.4949,-0.4949,-0.4948,-0.4948,0,-0.5145,-0.5156,-0.5185,-0.5164,-0.5163,-0.5189,-0.514,-0.5145,-0.511,-0.5082,-0.5107,-0.5082,-0.5077,-0.5083,-0.505,-0.5114,-0.5096,-0.5055,-0.4999,-0.5088,-0.5118,-0.513,-0.4957,-0.4955,-0.4954,-0.4952,0,0,-0.5316,-0.5263,-0.5274,-0.5263,-0.523,-0.5239,-0.5261,-0.5254,-0.526,-0.5246,-0.5264,-0.5272,-0.5233,-0.5227,-0.5191,-0.5213,-0.5292,-0.5169,-0.5168,-0.5193,-0.5361,-0.5392,-0.5408,-0.5264,-0.5266,-0.5268,-0.5362,0,-0.5416,-0.5451,-0.5402,-0.5448,-0.5457,-0.539,-0.5409,-0.5391,-0.5365,-0.5369,-0.534,-0.5346,-0.5294,-0.529,-0.5308,-0.5279,-0.5326,-0.5271,-0.528,-0.5281,-0.5288,-0.5423,-0.5457,-0.5548,-0.5374,-0.5376,-0.5377,0,-0.5539,-0.553,-0.5576,-0.5537,-0.554,-0.5558,-0.5547,-0.5552,-0.5529,-0.5508,-0.55,-0.5457,-0.5476,-0.5419,-0.5444,-0.5409,-0.5409,-0.5394,-0.5397,-0.5397,-0.5336,-0.5428,-0.5576,-0.559,-0.5395,-0.5394,-0.5392,0,-0.566,-0.5658,-0.5685,-0.5678,-0.5634,-0.5648,-0.5631,-0.5605,-0.5604,-0.5594,-0.5592,-0.5586,-0.5582,-0.5578,-0.5534,-0.5497,-0.5564,-0.5504,-0.5548,-0.5549,-0.5566,-0.5566,-0.5718,-0.5565,-0.5565,-0.5565,-0.5565,0,-0.5778,-0.5809,-0.5738,-0.5755,-0.5787,-0.5731,-0.5764,-0.574,-0.5718,-0.5728,-0.567,-0.5682,-0.5621,-0.5627,-0.5592,-0.5618,-0.5617,-0.56,-0.5591,-0.5606,-0.5608,-0.5607,-0.5599,-0.5568,-0.5568,-0.5567,-0.5566,0,-0.5919,-0.5873,-0.5898,-0.5853,-0.5843,-0.5868,-0.5831,-0.5844,-0.5812,-0.5827,-0.5827,-0.5777,-0.578,-0.5734,-0.5729,-0.5705,-0.5746,-0.5725,-0.5754,-0.5748,-0.5794,-0.579,-0.595,-0.5968,-0.5804,-0.5806,-0.5807,0,-0.5998,-0.602,-0.5977,-0.5979,-0.5964,-0.5969,-0.5966,-0.591,-0.591,-0.5884,-0.5901,-0.5898,-0.5893,-0.5901,-0.5865,-0.5859,-0.5838,-0.5894,-0.5837,-0.5851,-0.5839,-0.5839,-0.584,-0.5907,-0.5909,-0.5911,-0.5912,0,-0.6143,-0.6119,-0.6116,-0.6105,-0.6103,-0.6092,-0.6078,-0.6083,-0.6023,-0.6025,-0.6026,-0.6022,-0.6014,-0.6012,-0.5999,-0.5981,-0.5937,-0.593,-0.5939,-0.5956,-0.5972,-0.5964,-0.5787,-0.5927,-0.5926,-0.5924,-0.5924,-0.5923,-0.6256,-0.6271,-0.6243,-0.6242,-0.6224,-0.6211,-0.6221,-0.6189,-0.6189,-0.6177,-0.6144,-0.6151,-0.6125,-0.6103,-0.6089,-0.6093,-0.6066,-0.608,-0.6084,-0.6088,-0.6097,-0.597,-0.6091,-0.609,-0.609,-0.6089,-0.6089,0,-0.6398,-0.6376,-0.6375,-0.6355,-0.6354,-0.6309,-0.629,-0.6293,-0.6298,-0.6278,-0.6273,-0.6273,-0.627,-0.6233,-0.6225,-0.6236,-0.6215,-0.6236,-0.6235,-0.6231,-0.6122,-0.6115,-0.6252,-0.6252,-0.6252,-0.6252,-0.6252,-0.6252,-0.6472,-0.6496,-0.6467,-0.6481,-0.6458,-0.6463,-0.6455,-0.6443,-0.6426,-0.6429,-0.6425,-0.64,-0.6372,-0.6361,-0.6356,-0.6345,-0.6345,-0.6373,-0.6356,-0.6255,-0.6239,-0.6224,-0.6217,-0.6374,-0.6374,-0.6464,-0.6465,-0.6466]},{"header":{"parameterUnit":"m.s-1","parameterCategory":1,"la1":30.2991,"la2":30.254,"lo1":-89.0895,"lo2":-89.0444,"dy":0.0017,"dx":0.0017,"nx":28,"ny":28,"refTime":"2023-09-09T03:00:00:Z","depth":0,"parameterNumber":3,"parameterNumberName":"V-component_of_WINDS"},"data":[0,0,0,0,0,0,0,0,0,0,0,0,0,0,0,0,0,0,0,0,0,0,0,0,0,0,0,0,0,0,0,0,0,0,0,0,0,0,0,0,0,0,0,0,0,0,0,0,0,0,0,0,0,0,0,0,0,0,-2.8871,-2.8872,0,-2.9003,-2.9004,-2.9006,-2.9013,-2.9012,-2.901,-2.9009,-2.914,-2.9145,-2.9149,0,0,0,0,0,0,0,0,0,0,0,0,0,-2.8622,-2.8627,-2.8871,-2.8873,-2.8874,-2.9003,-2.9004,-2.9006,-2.9013,-2.9012,-2.901,-2.9008,-2.9138,-2.9144,-2.915,0,0,0,0,0,0,0,0,0,0,0,0,0,-2.8739,-2.8628,-2.8871,-2.8893,-2.8897,-2.9002,-2.9004,-2.9007,-2.9014,-2.9012,-2.9009,-2.9007,-2.9136,-2.9143,-2.9151,-2.9241,0,0,-2.9173,-2.9176,0,0,0,0,0,0,0,0,-2.8733,-2.8749,-2.8888,-2.8892,-2.8896,-2.8989,-2.8965,-2.9085,-2.9014,-2.8969,-2.9009,-2.9006,-2.9091,-2.9102,-2.9132,-2.9247,-2.9253,-2.9174,-2.9178,-2.9181,-2.9183,0,0,0,0,0,0,0,-2.8725,-2.8743,-2.8923,-2.889,-2.8895,-2.8896,-2.891,-2.8988,-2.9041,-2.8973,-2.8974,-2.899,-2.9093,-2.9125,-2.9135,-2.9255,-2.9173,-2.918,-2.9185,-2.9187,-2.945,-2.9453,0,0,0,0,0,0,-2.8713,-2.8736,-2.8919,-2.8927,-2.8807,-2.8902,-2.8918,-2.8962,-2.904,-2.905,-2.8991,-2.8989,-2.9113,-2.9126,-2.9139,-2.925,-2.9181,-2.9188,-2.9192,-2.9448,-2.9451,-2.9454,0,0,0,0,0,0,-2.8707,-2.8729,-2.8913,-2.8832,-2.8855,-2.8909,-2.8958,-2.8965,-2.8997,-2.9054,-2.9064,-2.9014,-2.9112,-2.9129,-2.9216,-2.9255,-2.9191,-2.9198,-2.9445,-2.9449,-2.9452,-2.9472,0,0,0,0,0,0,-2.87,-2.8727,-2.8763,-2.8833,-2.886,-2.8989,-2.896,-2.897,-2.901,-2.9009,-2.9078,-2.9087,-2.9112,-2.9205,-2.9223,-2.9264,-2.9204,-2.9442,-2.9447,-2.9451,-2.9468,-2.9476,-2.9483,0,0,0,0,0,-2.8691,-2.8762,-2.8764,-2.8786,-2.8906,-2.8991,-2.9006,-2.9034,-2.9013,-2.9049,-2.9086,-2.9085,-2.9248,-2.9214,-2.9234,-2.9278,-2.9439,-2.9445,-2.9451,-2.9465,-2.9475,-2.9483,0,0,0,0,0,0,-2.8694,-2.8772,-2.8775,-2.8871,-2.8925,-2.8992,-2.9038,-2.9043,-2.9103,-2.9099,-2.9129,-2.9145,-2.923,-2.9263,-2.9224,-2.9369,-2.9341,-2.9351,-2.9345,-2.9354,-2.9362,-2.9351,-2.921,0,0,0,0,0,-2.8706,-2.877,-2.8834,-2.8912,-2.8939,-2.8984,-2.9022,-2.9039,-2.9095,-2.9117,-2.916,-2.9214,-2.9277,-2.9317,-2.9379,-2.9473,-2.9488,-2.9513,-2.9521,-2.9526,-2.9534,-2.9586,-2.9598,-2.9473,-2.9473,-2.9473,0,0,-2.8731,-2.8781,-2.8819,-2.8914,-2.8958,-2.9022,-2.9003,-2.9072,-2.912,-2.9127,-2.9212,-2.9246,-2.9307,-2.9398,-2.944,-2.9428,-2.9572,-2.9534,-2.9538,-2.9543,-2.9593,-2.9605,-2.9616,-2.9477,-2.9476,-2.9476,0,0,-2.8809,-2.8854,-2.8924,-2.8968,-2.9035,-2.9064,-2.9081,-2.9149,-2.9171,-2.9257,-2.9264,-2.9321,-2.9429,-2.9473,-2.9509,-2.9604,-2.9605,-2.9623,-2.9661,-2.9711,-2.9721,-2.973,-2.9763,-2.9775,-2.9631,-2.9631,-2.9631,0,-2.8831,-2.8929,-2.8959,-2.9028,-2.9069,-2.9081,-2.9152,-2.9193,-2.9275,-2.9303,-2.9288,-2.9424,-2.9466,-2.9567,-2.9591,-2.962,-2.9639,-2.9615,-2.9718,-2.9727,-2.9735,-2.9767,-2.978,-2.9633,-2.9633,-2.9633,-2.9633,0,-2.8953,-2.9021,-2.907,-2.915,-2.9197,-2.9266,-2.9306,-2.9349,-2.9362,-2.9392,-2.9479,-2.9531,-2.9602,-2.9628,-2.964,-2.9731,-2.9721,-2.9712,-2.9684,-2.9749,-2.9779,-2.9791,-2.9635,-2.9635,-2.9634,-2.9634,0,0,-2.9035,-2.9132,-2.915,-2.9186,-2.9261,-2.9313,-2.9383,-2.9455,-2.9491,-2.9547,-2.9606,-2.9698,-2.969,-2.9731,-2.9748,-2.9793,-2.9864,-2.9778,-2.978,-2.9791,-2.9965,-2.9971,-2.9984,-2.9866,-2.9868,-2.987,-2.996,0,-2.9121,-2.9246,-2.9275,-2.9382,-2.9445,-2.9458,-2.9518,-2.957,-2.96,-2.9657,-2.9691,-2.9755,-2.974,-2.9765,-2.9809,-2.9846,-2.9899,-2.984,-2.9919,-2.9921,-2.9902,-3.0,-3.0007,-3.0088,-2.9972,-2.9974,-2.9975,0,-2.9237,-2.9298,-2.9411,-2.9478,-2.9505,-2.9559,-2.9627,-2.9682,-2.974,-2.9759,-2.9806,-2.9819,-2.9891,-2.9861,-2.9959,-2.9918,-2.9952,-2.9975,-2.9979,-2.9986,-2.9951,-3.0009,-3.0115,-3.0127,-2.9994,-2.9993,-2.9991,0,-2.9284,-2.9394,-2.9477,-2.9508,-2.9588,-2.9625,-2.966,-2.9716,-2.9758,-2.9816,-2.9843,-2.9909,-2.9945,-2.9995,-3.0026,-3.0001,-3.0121,-3.0094,-3.0138,-3.0137,-3.0162,-3.0159,-3.0274,-3.0186,-3.0185,-3.0185,-3.0185,0,-2.9376,-2.9445,-2.9499,-2.955,-2.9627,-2.9659,-2.9734,-2.9769,-2.9819,-2.9876,-2.989,-2.9943,-2.998,-3.0038,-3.0062,-3.0139,-3.0155,-3.0172,-3.0177,-3.017,-3.0168,-3.0191,-3.0186,-3.0189,-3.0188,-3.0187,-3.0187,0,-2.9441,-2.9481,-2.9571,-2.964,-2.9658,-2.9712,-2.977,-2.9819,-2.9851,-2.9922,-2.994,-2.9989,-3.0057,-3.0093,-3.0178,-3.0194,-3.0281,-3.0283,-3.0261,-3.0263,-3.0305,-3.03,-3.0438,-3.0457,-3.0357,-3.0358,-3.0359,0,-2.9497,-2.955,-2.9625,-2.9665,-2.97,-2.9764,-2.9806,-2.984,-2.9883,-2.9954,-2.9994,-3.0064,-3.0121,-3.0229,-3.0271,-3.0336,-3.034,-3.0384,-3.0349,-3.034,-3.0339,-3.0335,-3.034,-3.0389,-3.039,-3.0391,-3.0391,0,-2.9591,-2.9608,-2.9669,-2.9737,-2.9788,-2.9843,-2.9897,-2.9928,-2.9971,-3.0018,-3.0089,-3.0134,-3.0221,-3.0289,-3.0358,-3.0392,-3.0398,-3.0402,-3.0415,-3.0408,-3.0392,-3.04,-3.0276,-3.0398,-3.0397,-3.0397,-3.0397,-3.0396,-2.9652,-2.97,-2.976,-2.9828,-2.9872,-2.9923,-2.9972,-3.001,-3.007,-3.0145,-3.0161,-3.0236,-3.0292,-3.0385,-3.0422,-3.0479,-3.047,-3.049,-3.0495,-3.0499,-3.05,-3.0385,-3.0492,-3.0492,-3.0492,-3.0492,-3.0491,0,-2.9745,-2.9785,-2.9847,-2.9923,-2.9976,-2.998,-3.004,-3.0083,-3.0149,-3.0202,-3.0259,-3.034,-3.0406,-3.0454,-3.0521,-3.0558,-3.0563,-3.0575,-3.0572,-3.0579,-3.0505,-3.0486,-3.057,-3.057,-3.057,-3.057,-3.057,-3.057,-2.98,-2.9881,-2.9905,-3.0009,-3.0047,-3.0122,-3.0156,-3.0202,-3.0244,-3.0335,-3.039,-3.0422,-3.0473,-3.0544,-3.0605,-3.0617,-3.064,-3.0652,-3.0664,-3.0593,-3.0585,-3.0577,-3.0559,-3.0657,-3.0657,-3.0733,-3.0734,-3.0735]}]]